Location: *
(46.3374°S, 177.1265°W)
Time: 04:21:52
(UTC+00:00)

Daily predictions for brighter satellites

Satellite Brightness Start Highest point End
(mag) Time Altitude Azimuth Time Altitude Azimuth Time Altitude Azimuth
Nadezhda 1 Rocket 4.2 06:55:51 10° S 07:01:55 52° ESE 07:07:51 10° NNE
Cosmos 1939 Rocket 3.1 06:59:52 10° S 07:04:07 84° WSW 07:08:18 10° NNW
Cosmos 841 Rocket 3.8 06:59:01 10° SSW 07:04:11 52° ESE 07:09:19 10° NE
COSMOS 2428 3.2 06:58:47 10° SSW 07:04:23 49° ESE 07:09:55 10° NE
CZ-4 R/B 4.4 07:01:06 10° SSE 07:05:20 73° ENE 07:09:30 10° N
Cosmos 2333 Rocket 2.4 07:00:05 10° SSW 07:05:53 63° ESE 07:11:38 10° NE
Cosmos 1346 Rocket 3.8 07:03:15 10° NNE 07:06:43 28° E 07:10:14 10° SSE
Cosmos 2084 Rocket 3.7 07:02:36 10° SW 07:06:54 58° SE 07:11:04 10° NE
Okean-O 2.8 07:02:50 10° SSE 07:07:18 55° E 07:11:41 10° N
Helios 1A Rocket 3.0 07:04:58 10° SSE 07:09:09 63° ENE 07:13:19 10° N
ATLAS CENTAUR R/B 3.2 07:05:21 10° WNW 07:09:44 41° SW 07:14:20 10° SSE
Cosmos 1741 Rocket 4.0 07:04:45 10° NNW 07:10:01 80° ENE 07:15:22 10° SSE
Cosmos 921 Rocket 3.6 07:08:15 10° SSW 07:12:28 59° WNW 07:16:36 10° N
Cosmos 1825 3.3 07:10:36 10° NNE 07:13:47 26° E 07:17:01 10° SSE
Cosmos 2237 Rocket 3.5 07:10:05 10° S 07:14:57 27° SE 07:19:44 10° ENE
IRS-1C Rocket 4.2 07:09:57 10° SSE 07:15:20 89° ENE 07:20:38 10° NNW
USA 229 DEB 4.1 07:08:40 10° N 07:15:57 48° ENE 07:22:58 10° SE
USA 229 4.2 07:08:46 10° N 07:16:03 47° ENE 07:23:03 10° SE
Cosmos 1076 Rocket 4.1 07:13:56 10° NNE 07:17:57 37° E 07:22:02 10° SSE
ISS -2.2 07:18:30 10° WSW 07:21:40 33° S 07:24:50 10° ESE
Cosmos 2360 Rocket 3.3 07:17:33 10° SW 07:23:00 45° WNW 07:28:23 10° N
USA 267 3.3 07:17:12 10° SE 07:23:46 63° NE 07:30:18 10° NW
USA 281 3.2 07:18:02 10° SSE 07:24:43 84° ENE 07:31:19 10° NNW
Cosmos 1745 Rocket 4.1 07:18:37 10° N 07:24:58 71° E 07:31:20 10° SSE
Cosmos 1850 Rocket 4.4 07:20:18 10° NNW 07:25:40 74° WSW 07:31:04 10° SSE
Cosmos 1340 2.8 07:22:40 10° NNW 07:26:30 84° W 07:30:23 10° S
SL-24 DEB 4.3 07:21:43 10° NNE 07:26:32 77° E 07:31:23 10° S
CZ-4 R/B 1.5 07:23:01 10° SSE 07:27:19 90° SE 07:31:30 10° NNW
H-2A R/B 3.9 07:25:49 10° NE 07:29:46 44° ESE 07:33:47 10° S
NOSS 3-1 (A) 4.3 07:22:28 10° N 07:30:52 50° ENE 07:38:21 10° SE
COSMOS 2487 3.7 07:30:12 10° NW 07:33:32 45° WSW 07:36:57 10° S
CSL-04 Debris 4.2 07:32:53 10° SSE 07:38:17 58° E 07:43:37 10° N
Cosmos 1386 Rocket 4.4 07:33:02 10° N 07:39:13 84° E 07:45:23 10° S
SJ-11-01 4.3 07:34:50 10° SSE 07:39:37 64° ENE 07:44:18 10° N
SL-16 R/B 4.0 07:36:45 10° S 07:40:44 19° SE 07:44:42 10° E
Cosmos 2227 Rocket 3.4 07:43:13 15° NE 07:45:58 21° E 07:50:04 10° SE
NOSS 3-1 (C) 4.1 07:40:22 10° NNW 07:49:11 85° NE 07:56:54 10° SE
Cosmos 2219 Rocket 2.4 07:44:15 10° SSW 07:49:56 72° WNW 07:55:28 11° NNE
USA 186 2.6 07:47:08 10° SSE 07:50:12 33° E 07:51:43 21° NE
Cosmos 724 4.3 07:44:45 10° SW 07:50:41 89° NW 07:55:21 16° NNE
Cosmos 1606 3.4 07:47:21 10° S 07:50:56 35° ESE 07:52:50 22° NE
Cosmos 1151 Rocket 4.4 07:48:28 10° SSE 07:52:02 23° ESE 07:53:49 18° ENE
Cosmos 1709 Rocket 4.0 07:48:33 10° N 07:54:49 68° E 08:01:05 10° SSE
FREGAT/IRIS 4.2 07:54:57 10° SE 07:56:09 17° ESE 07:56:09 17° ESE
USA 234 3.4 07:53:29 17° ENE 07:58:49 76° SSE 08:05:27 10° SW
CZ-2C R/B 3.7 07:54:07 10° S 07:59:33 66° WSW 08:05:12 10° NNW
NOSS 0 Rocket 3.9 07:57:14 10° SSW 08:03:29 80° ESE 08:07:59 20° NNE
Cosmos 389 Rocket 3.3 08:03:59 10° S 08:07:25 36° ESE 08:08:27 29° ENE
Cosmos 1933 4.2 08:03:49 10° S 08:07:40 35° ESE 08:09:05 27° ENE
Cosmos 2151 3.0 08:04:24 15° N 08:07:51 59° E 08:12:07 10° SSE
Resurs 01 Rocket 3.5 08:05:52 10° SE 08:08:03 15° E 08:08:03 15° E
OBJECT-B 2.1 08:08:35 10° SE 08:11:03 25° E 08:11:03 25° E
YAOGAN 1 4.2 08:10:08 10° S 08:14:13 38° WSW 08:18:16 10° NW
Cosmos 2181 Rocket 4.0 08:10:01 10° S 08:16:15 73° E 08:20:43 20° NNE
ARGOS 3.2 08:15:50 10° SSE 08:21:18 83° WSW 08:26:43 10° NNW
SL-8 R/B 4.5 08:19:29 10° NNW 08:23:16 30° NNE 08:23:16 30° NNE
Cosmos 2297 Rocket 2.4 08:20:06 11° N 08:25:25 50° ENE 08:30:54 10° SE
Timation 2 Rocket 4.1 08:18:50 10° NNW 08:25:38 70° ENE 08:32:17 10° SSE
OE (NEXTSAT) 4.2 08:22:50 10° W 08:26:21 87° N 08:27:19 46° E
Cosmos 1782 4.0 08:23:02 10° SSE 08:26:36 27° ESE 08:27:04 27° E
Cosmos 1932 4.5 08:20:50 10° SW 08:27:10 77° SE 08:30:38 29° NE
X-37B 2.9 08:26:21 10° NW 08:27:03 15° NNW 08:27:03 15° NNW
Cosmos 968 Rocket 3.4 08:26:44 12° N 08:31:23 65° ENE 08:36:31 10° SSE
H-2A R/B 3.1 08:30:33 10° S 08:35:23 45° WSW 08:40:18 10° NW
Cosmos 1900 4.4 08:32:55 10° SW 08:37:48 72° WNW 08:39:45 36° NNE
Ariane Rocket 2.9 08:33:08 10° SSE 08:38:18 72° ENE 08:41:24 24° N
Cosmos 1515 Rocket 4.3 08:36:32 10° S 08:40:46 37° ESE 08:41:22 35° E
Lacrosse 5 rocket 3.5 08:38:31 10° SW 08:42:04 23° SSE 08:45:00 12° ESE
SL-08 RB Rocket 4.3 08:39:41 10° S 08:44:16 58° WSW 08:48:44 10° NNW
COSMOS 2428 4.3 08:43:31 10° SW 08:48:24 29° WNW 08:52:46 12° NNW
Cosmos 2154 Rocket 4.4 08:46:27 35° NE 08:48:30 45° E 08:54:34 10° SSE
Cosmos 1825 4.5 08:46:05 10° NW 08:49:15 24° WSW 08:52:27 10° SSW
Cosmos 2333 Rocket 4.2 08:45:14 10° SW 08:49:39 23° W 08:54:04 10° NNW
Meteor 2-3 Rocket 3.7 08:46:37 27° N 08:49:55 74° E 08:55:46 10° SSE
Cosmos 1486 Rocket 4.0 08:44:47 10° NNW 08:50:03 84° WSW 08:55:23 10° SSE
Nadezhda 3 Rocket 4.3 08:45:38 10° S 08:51:41 49° ESE 08:53:37 37° ENE
SJ-6B 3.1 08:49:38 10° S 08:53:28 65° WSW 08:55:08 32° NW
Resurs 1-3 3.6 08:50:32 10° SSE 08:54:59 63° E 08:55:35 56° NE
Cosmos 2219 3.1 08:49:20 10° NNW 08:55:03 89° ENE 09:00:49 10° SSE
ISS -3.5 08:55:24 10° WSW 08:58:41 67° S 08:58:41 67° S
Cosmos 2237 Rocket 2.5 08:53:46 10° SSW 08:59:26 60° WNW 09:01:45 35° N
Cosmos 1503 Rocket 4.0 08:57:43 36° N 08:59:53 70° ENE 09:05:19 10° SSE
SeaSat 1 3.3 08:56:29 10° SE 09:00:08 33° E 09:00:08 33° E
Cosmos 1633 2.5 09:01:51 82° W 09:01:54 82° WSW 09:05:36 10° S
SAR-Lupe-2 3.5 09:02:15 76° WNW 09:02:20 77° WNW 09:06:01 10° SSW
Cosmos 2228 Rocket 4.1 08:59:23 10° S 09:03:22 32° ESE 09:03:22 32° ESE
Cosmos 2082 3.9 09:03:43 46° NE 09:04:12 47° ENE 09:09:40 10° SE
USA 267 4.0 09:00:18 10° SE 09:06:43 54° SSW 09:13:06 10° W
Cosmos 1980 4.4 09:04:45 10° SW 09:10:12 47° WNW 09:12:26 31° NNW
Okean 3 Rocket 4.3 09:07:49 25° NW 09:10:14 52° WSW 09:14:45 10° S
Cosmos 1867 3.7 09:05:20 10° SSW 09:10:44 64° SE 09:11:58 50° ENE
Cosmos 1354 Rocket 3.9 09:09:30 45° N 09:11:08 76° ENE 09:16:34 10° SSE
Cosmos 1500 Rocket 4.2 09:13:48 43° ESE 09:13:48 43° ESE 09:17:30 10° SSE
Cosmos 1766 Rocket 4.4 09:13:09 28° NW 09:15:13 50° WSW 09:19:35 10° S
Cosmos 1610 Rocket 4.4 09:20:18 45° N 09:22:23 80° E 09:28:44 10° S
CENTAUR R/B 4.1 09:19:02 10° SSW 09:23:58 24° SSE 09:27:34 13° ESE
Cosmos 1743 Rocket 3.8 09:25:01 58° ESE 09:25:01 58° ESE 09:29:03 10° SSE
SL-16 R/B 2.1 09:19:58 10° SSW 09:25:46 85° ESE 09:26:49 61° NE
Cosmos 1441 Rocket 4.1 09:26:26 42° W 09:26:52 44° WSW 09:30:34 10° S
Cosmos 2227 Rocket 2.5 09:24:52 16° NW 09:29:27 67° WSW 09:35:11 10° SSE
Cosmos 1151 Rocket 4.2 09:25:38 10° SSW 09:29:42 37° W 09:30:40 32° WNW
Thor Agena Rocket 3.7 09:30:50 53° E 09:31:09 54° ESE 09:36:10 10° S
Cosmos 1812 3.8 09:27:21 10° S 09:30:12 38° SSE 09:30:12 38° SSE
Cosmos 783 Rocket 4.4 09:26:06 10° SSW 09:31:25 82° WNW 09:32:02 69° N
Cosmos 2184 Rocket 4.4 09:29:09 25° NNW 09:32:58 61° WSW 09:39:21 10° S
Cosmos 1295 Rocket 4.4 09:34:31 56° N 09:35:58 81° E 09:42:20 10° S
Cosmos 2263 Rocket 3.8 09:38:43 20° ESE 09:38:43 20° ESE 09:41:10 10° SE
Meteor 1-27 Rocket 4.3 09:31:06 10° S 09:36:52 45° ESE 09:37:29 43° E
SPOT 3 Rocket 3.7 09:34:32 10° S 09:39:46 72° WSW 09:41:00 51° NW
Meteor 1-4 Rocket 3.7 09:37:15 10° SSW 09:39:51 42° SW 09:39:51 42° SW
USA 234 4.0 09:40:50 34° NNW 09:42:10 38° NW 09:48:13 10° WSW
Cosmos 962 Rocket 4.4 09:41:28 61° NE 09:42:20 69° E 09:48:35 10° SSE
OBJECT-B 3.2 09:41:07 10° SSW 09:43:37 20° WSW 09:44:13 19° W
Resurs 01 Rocket 1.9 09:40:53 10° S 09:45:23 64° WSW 09:45:38 62° W
Cosmos 1538 Rocket 4.1 09:40:43 10° SSW 09:45:54 60° ESE 09:45:59 59° ESE
Cosmos 1805 Rocket 4.5 09:51:44 42° SE 09:51:44 42° SE 09:55:00 10° SSE
ARIANE 5 R/B 3.1 09:47:14 10° SSE 09:50:43 54° SSE 09:50:43 54° SSE
Cosmos 2341 Rocket 3.9 09:58:35 69° NNE 09:59:23 82° E 10:05:51 10° S
USA 238 DEB 4.3 09:52:38 10° SW 09:59:26 48° SE 10:01:44 35° E
USA 238 4.4 09:52:45 10° SW 09:59:32 47° SE 10:01:51 35° E
Terra 3.4 09:59:21 10° SSE 10:02:00 25° ESE 10:02:00 25° ESE
NOSS 3-2 (A) 3.9 09:57:59 10° SW 10:04:31 51° SE 10:05:49 44° E
Spot 2 Rocket 3.6 10:01:01 10° SSE 10:05:39 72° SE 10:05:39 72° SE
Cosmos 2218 Rocket 4.0 10:08:52 62° E 10:08:54 62° E 10:15:04 10° SSE
Cosmos 2297 Rocket 3.9 10:04:41 10° WNW 10:09:42 31° SW 10:14:45 10° S
Cosmos 1603 3.9 10:10:32 10° SSW 10:16:19 62° ESE 10:16:28 61° ESE
Cosmos 1777 Rocket 4.1 10:19:20 71° WSW 10:19:20 71° WSW 10:24:40 10° SSE
SPOT 5 3.5 10:15:00 10° SSE 10:19:23 55° ESE 10:19:23 55° ESE
Lacrosse 5 rocket 2.7 10:17:43 10° SW 10:20:37 38° SSW 10:20:37 38° SSW
SL-8 Rocket 3.8 10:21:57 79° NNW 10:22:24 89° W 10:28:49 10° S
Cosmos 158 Rocket 4.5 10:20:12 10° SSW 10:25:12 54° SE 10:25:12 54° SE
SJ 16-02 3.0 10:32:47 28° SE 10:32:47 28° SE 10:35:01 10° SSE
Cosmos 405 Rocket 4.5 10:34:23 32° S 10:34:23 32° S 10:36:45 10° S
SPOT 1/Viking Rocket 3.9 10:29:01 10° S 10:34:08 61° WSW 10:34:08 61° WSW
Cosmos 864 Rocket 4.4 10:35:31 85° N 10:35:41 90° E 10:42:04 10° S
SeaSat 1 3.7 10:33:59 10° SSE 10:38:35 38° SW 10:39:54 32° W
Cosmos 1633 Rocket 4.3 10:50:42 39° S 10:50:42 39° S 10:53:32 10° S
Sich 1 4.4 10:51:59 37° SW 10:51:59 37° SW 10:55:11 10° S
CZ-2D R/B 4.2 10:50:36 16° ESE 10:52:06 17° ESE 10:55:37 10° SSE
Cosmos 923 Rocket 4.4 10:48:24 10° SSW 10:52:56 63° SSW 10:52:56 63° SSW
Cosmos 1943 3.4 10:52:56 10° SSW 10:57:50 64° SW 10:57:50 64° SW
Cosmos 2366 rocket 4.2 11:00:46 57° W 11:01:07 58° WSW 11:07:17 10° S
NOSS 3-2 (C) 3.4 10:58:54 10° SW 11:05:30 74° SE 11:05:30 74° SE
ERS-1 Rocket 3.7 11:00:37 10° S 11:05:08 49° SW 11:05:08 49° SW
NOSS 3-4 (A) 4.5 11:07:29 45° ENE 11:07:29 45° ENE 11:14:25 10° SE
SL-16 R/B 4.3 11:05:47 10° WSW 11:08:42 16° W 11:08:42 16° W
SL-08 R/B 4.4 11:10:01 77° WSW 11:10:01 77° WSW 11:16:05 10° S
Cosmos 1844 Rocket 4.2 11:11:39 25° ESE 11:11:39 25° ESE 11:14:47 10° SE
CENTAUR R/B 2.4 11:09:38 10° SW 11:14:43 65° SSW 11:14:43 65° SSW
Cosmos 1934 Rocket 4.4 11:18:14 52° E 11:18:14 52° E 11:24:09 10° SSE
CZ-4C R/B 4.4 11:19:41 22° E 11:19:41 22° E 11:24:04 10° ESE
Cosmos 2263 Rocket 2.6 11:20:22 57° SW 11:20:22 57° SW 11:25:50 10° SSE
Meteor 1-18 Rocket 4.4 11:18:14 10° SSW 11:23:05 67° SSW 11:23:05 67° SSW
ATLAS 2AS CENTAUR R/B 3.4 11:28:23 35° E 11:28:23 35° E 11:32:40 10° SE
Cosmos 2123 Rocket 4.1 11:24:25 10° S 11:30:43 68° ESE 11:30:43 68° ESE
Terra 3.2 11:37:04 10° S 11:40:53 33° SW 11:40:53 33° SW
BREEZE-M DEB (TANK) 4.3 11:34:07 10° W 11:42:04 48° SW 11:42:04 48° SW
Lacrosse 4 Rocket 3.1 11:40:53 10° SSW 11:44:07 32° SSE 11:44:07 32° SSE
Gbstr 26 Del rocket 4.3 11:45:41 33° W 11:49:06 68° SSW 11:55:18 10° ESE
USA 238 DEB 4.3 11:43:52 10° SW 11:49:10 42° W 11:49:10 42° W
USA 238 4.3 11:43:58 10° SW 11:49:16 42° W 11:49:16 42° W
Cosmos 1937 Rocket 4.0 11:52:32 60° S 11:52:32 60° S 11:57:03 10° SSE
